Regional Weather Roundup
Issued by NWS

Home | Current Version | Previous Version | Graphics & Text | Print | Product List | Glossary Off
Versions: 1 2 3 4 5 6 7 8 9 10 11 12 13 14 15 16 17 18 19 20 21 22 23 24 25 26 27 28 29 30 31 32 33 34 35 36 37 38 39 40 41 42 43 44 45 46 47 48 49 50

000
ASUS43 KLSX 202007
RWRMO

WEATHER SUMMARY FOR MISSOURI
NATIONAL WEATHER SERVICE SPRINGFIELD MO
300 PM CDT WED AUG 20 2014

NOTE: "FAIR" INDICATES FEW OR NO CLOUDS BELOW 12,000 FEET WITH NO
       SIGNIFICANT WEATHER AND/OR OBSTRUCTIONS TO VISIBILITY.
       CURRENT SKY AND/OR WEATHER CONDITIONS ARE NOT AVAILABLE FOR
       CHILLICOTHE AND FARMINGTON.

MOZ001>031-035>038-043-044-053-054-202100-
...NORTHERN AND WESTERN MISSOURI...

CITY           SKY/WX    TMP DP  RH WIND       PRES   REMARKS
KANSAS CTY INT PTSUNNY   89  71  55 S12       29.87F HX  95
KANSAS C DTWN  PTSUNNY   92  69  47 S10G21    29.86F HX  97
LEE`S SUMMIT   MOSUNNY   91  69  48 S13G20    29.89F HX  96
ST JOSEPH      MOSUNNY   89  74  60 S10       29.85F HX  98
CHILLICOTHE      N/A     88  75  65 VRB7      29.90F HX  97
KIRKSVILLE     MOSUNNY   85  73  67 SE12      29.94F HX  91

$$
MOZ066>068-077>081-088>096-101>105-202100-
...SOUTHWEST MISSOURI...

CITY           SKY/WX    TMP DP  RH WIND       PRES   REMARKS
SPRINGFIELD    PTSUNNY   94  65  38 SW17      29.96F HX  96
JOPLIN         MOSUNNY   91  66  43 S17       29.95F HX  93

$$
MOZ032>034-039>042-045>050-055>058-069>072-202100-
...CENTRAL MISSOURI...

CITY           SKY/WX    TMP DP  RH WIND       PRES   REMARKS
COLUMBIA       MOSUNNY   91  73  55 SW6       29.94F HX  99
JEFFERSON CITY MOSUNNY   91  70  49 SE7       29.93F HX  96
ROLLA          MOSUNNY   91  69  48 VRB5      29.96F HX  96
SEDALIA        PTSUNNY   91  72  53 S9        29.93F HX  98
WHITEMAN AFB   MOSUNNY   91  65  42 SW15      29.90F HX  93
OSAGE BEACH    MOSUNNY   93  68  43 SW6       29.93F HX  97

$$
MOZ051-052-059>065-202100-
...EAST CENTRAL MISSOURI...

CITY           SKY/WX    TMP DP  RH WIND       PRES   REMARKS
ST LOUIS INTL  CLOUDY    86  72  62 SE15      29.96F HX  92
SPIRIT OF STL  CLOUDY    88  73  61 CALM      29.94F HX  95
ST CHARLES     CLOUDY    81  72  74 E9        29.95F

$$
MOZ072>076-082>087-097>100-106>115-202100-
...SOUTH CENTRAL AND SOUTHEAST MISSOURI...

CITY           SKY/WX    TMP DP  RH WIND       PRES   REMARKS
CAPE GIRARDEAU SUNNY     92  76  59 SW7       29.96F HX 104
FARMINGTON     PTSUNNY   91  72  52 CALM      29.99S HX  98
POPLAR BLUFF   SUNNY     94  69  44 S10       29.95F HX  99
WEST PLAINS    SUNNY     93  68  43 SW8       30.01F HX  97

$$



USA.gov is the U.S. government's official web portal to all federal, state and local government web resources and services.